Powrót do katalogu

FENGYUN 1C DEB

AktywnySSO
NORAD 31985·DEBRIS·🇨🇳 China

Wystrzelony May 10, 1999 z Taiyuan Satellite Launch Center

Loading…

Następne Przeloty (najbliższe 24 godziny)

TLE

Starzejące sięSource: Space-Track

Epoka: Sep 9, 2026, 11:08 UTC

1 31985U 99025CPN 26252.46415277  .00000294  00000-0  13090-3 0  9995
2 31985  98.1909 140.6141 0150947 170.8394 189.5596 14.23324760994613

Śledź FENGYUN 1C DEB w czasie rzeczywistym z AllMySat

Download on the App Store